User: anonymous   Login
Location: Bois Neuf
(42.7667°N, 0.6333°E)
Time: 16:20:42
(UTC+00:00)
Language:

Cosmos 540 Rocket - Orbit

View from above orbital plane
View from above orbital plane
View from above satellite
View from above satellite

Ground track
Ground track

The orbit data is extracted from the following two-line orbital elements,

1  6324U 72104B   20224.92906489 +.00000006 +00000-0 +97379-5 0  9992
2  6324 074.0777 131.3403 0009562 328.0170 032.0406 14.43498977501486
Epoch (UTC): 11 August 2020 22:17:51
Eccentricity: 0.0009562
inclination: 74.0777°
perigee height: 740 km
apogee height: 754 km
right ascension of ascending node: 131.3403°
argument of perigee: 328.0170°
revolutions per day: 14.43498977
mean anomaly at epoch: 32.0406°
orbit number at epoch: 50148

The dashed part of the orbit path shows where the satellite is in the earth's shadow,  

DLR